Location: Curicchi
(45.0167°N, 12.0500°E)
Time: 03:11:59
(UTC+00:00)

NPP - Pass Details

Date: 07 June 2020
Orbit: 826 x 827 km, 98.7° (Epoch: 06 July)

Event Time Altitude Azimuth Distance (km) Brightness Sun altitude
Rises 01:11:33 0° 12° (NNE) 3,378 8.3 -16.8°
Reaches altitude 10° 01:13:55 10° 12° (NNE) 2,440 7.3 -16.6°
Maximum altitude 01:19:19 79° 287° (WNW) 847 3.6 -16.1°
Enters shadow 01:22:35 25° 203° (SSW) 1,624 4.6 -15.8°
